Regional Weather Roundup
Issued by NWS

Home | Current Version | Previous Version | Graphics & Text | Print | Product List | Glossary On
Versions: 1 2 3 4 5 6 7 8 9 10 11 12 13 14 15 16 17 18 19 20 21 22 23 24 25 26 27 28 29 30 31 32 33 34 35 36 37 38 39 40 41 42 43 44 45 46 47 48 49 50
000
ASUS43 KBIS 201902
RWRND

NORTH DAKOTA REGIONAL WEATHER ROUNDUP
NATIONAL WEATHER SERVICE BISMARCK ND
100 PM CST TUE FEB 20 2018

NOTE: "FAIR" INDICATES FEW OR NO CLOUDS BELOW 12,000 FEET WITH NO
SIGNIFICANT WEATHER AND/OR OBSTRUCTIONS TO VISIBILITY.


NDZ001>003-009>011-017-202000-
NORTHWEST NORTH DAKOTA

CITY           SKY/WX    TMP DP  RH WIND       PRES   REMARKS
WILLISTON      FAIR       4  -4  69 W17       30.11R WCI -16
MINOT          FAIR       8  -1  66 SW13      30.07S WCI  -8
MINOT AFB      FAIR       8  -1  66 W15       30.06S WCI  -9
$$

NDZ018>021-031>035-040>046-202000-
SOUTHWEST NORTH DAKOTA

CITY           SKY/WX    TMP DP  RH WIND       PRES   REMARKS
BISMARCK       FAIR      11   0  61 W16       30.15S WCI  -6
GARRISON         N/A      6  -2  69 W14       30.09S WCI -11
HETTINGER ARPT FAIR       2  -6  69 W13       30.10S WCI -15
$$

NDZ004>008-012>016-024-026-027-054-202000-
NORTHEAST NORTH DAKOTA

CITY           SKY/WX    TMP DP  RH WIND       PRES   REMARKS
GRAND FORKS    FAIR      11   4  73 NW12      30.10S WCI  -3
GRND FRKS AFB  MOSUNNY   11   1  65 NW12      30.10S WCI  -4
DEVILS LAKE    FAIR       6  -1  73 W16       30.08S WCI -12
$$

NDZ022-023-025-028>030-036>039-047>053-202000-
SOUTHEAST NORTH DAKOTA

CITY           SKY/WX    TMP DP  RH WIND       PRES   REMARKS
FARGO          CLOUDY    10   3  73 NW18      30.11S WCI  -8
$$





USA.gov is the U.S. government's official web portal to all federal, state and local government web resources and services.